Weather History for Montague, CA

Change the Weather History Date:

Friday, November 23, 2012

  Actual Average Record
Temperature  
Mean Temperature 37 °F 37 °F  
Max Temperature 48 °F 47 °F 64 °F (1995)
Min Temperature 25 °F 28 °F 15 °F (1993)
Degree Days  
Heating Degree Days 28 28  
Month to date heating degree days 492 553  
Since 1 July heating degree days 847 1106  
Cooling Degree Days 0 0  
Month to date cooling degree days 0 0  
Year to date cooling degree days 622 544  
Moisture  
Dew Point 28 °F    
Average Humidity 88    
Maximum Humidity 100    
Minimum Humidity 60    
Precipitation  
Precipitation 0.00 in 0.10 in 2.38 in (1988)
Month to date precipitation 0.59 2.18  
Year to date precipitation 9.08 15.02  
Sea Level Pressure  
Sea Level Pressure 30.41 in    
Wind  
Wind Speed 1 mph (SSE)    
Max Wind Speed 6 mph    
Max Gust Speed 7 mph    
Visibility 7 miles    
Events Fog    
T = Trace of Precipitation, MM = Missing Value Source: NWS Daily Summary

Daily Weather History Graph

Daily Weather History Graph

Search for Another Location

Airport:

Trip Planner

Search our weather history database for the weather conditions in past years. The results will help you decide how hot, cold, wet, or windy it might be!

Date:

Astronomy

Nov. 23, 2012 Rise Set
Actual Time 7:09 AM PST 4:43 PM PST
Civil Twilight 6:38 AM PST 5:13 PM PST
Nautical Twilight 6:04 AM PST 5:47 PM PST
Astronomical Twilight 5:31 AM PST 6:21 PM PST
Moon 2:03 PM PST (11/23) 2:30 AM PST (11/23)
Length of Visible Light 10h 34m
Length of Day
9h 33m
Waxing Gibbous, 80% of the Moon is Illuminated
Nov 23
Waxing Gibbous
Nov 28
Full
Dec 6
Last Quarter
Dec 13
New
Dec 19
First Quarter

Hourly Weather History & Observations

Time (PST) Temp. Windchill Dew Point Humidity Pressure Visibility Wind Dir Wind Speed Gust Speed Precip Events Conditions
12:53 AM 28.9 °F - 26.1 °F 89% 30.43 in 10.0 mi Calm Calm - N/A   Clear
1:53 AM 28.9 °F - 26.1 °F 89% 30.42 in 10.0 mi Calm Calm - N/A   Clear
2:53 AM 28.0 °F - 25.0 °F 88% 30.43 in 10.0 mi Calm Calm - N/A   Clear
3:53 AM 28.0 °F 24.2 °F 24.1 °F 85% 30.43 in 10.0 mi East 3.5 mph - N/A   Clear
4:53 AM 26.1 °F - 23.0 °F 88% 30.44 in 10.0 mi Calm Calm - N/A   Clear
5:53 AM 26.1 °F - 23.0 °F 88% 30.46 in 9.0 mi Calm Calm - N/A   Clear
6:37 AM 26.6 °F - 24.8 °F 93% 30.37 in 2.5 mi Calm Calm - N/A   Scattered Clouds
6:41 AM 26.6 °F - 24.8 °F 93% 30.37 in 1.0 mi Calm Calm - N/A   Mist
6:49 AM 26.6 °F - 24.8 °F 93% 30.37 in 0.5 mi Calm Calm - N/A Fog Light Freezing Fog
6:53 AM 26.1 °F - 25.0 °F 96% 30.46 in 0.5 mi Calm Calm - N/A Fog Light Freezing Fog
7:05 AM 26.6 °F - 24.8 °F 93% 30.38 in 2.0 mi Calm Calm - N/A   Mostly Cloudy
7:10 AM 24.8 °F - 24.8 °F 100% 30.37 in 7.0 mi Calm Calm - N/A   Scattered Clouds
7:22 AM 26.6 °F - 24.8 °F 93% 30.38 in 1.2 mi Calm Calm - N/A   Mostly Cloudy
7:25 AM 24.8 °F - 23.0 °F 93% 30.38 in 0.2 mi Calm Calm - N/A Fog Light Freezing Fog
7:53 AM 25.0 °F - 24.1 °F 96% 30.48 in 0.2 mi Calm Calm - N/A Fog Light Freezing Fog
8:53 AM 28.9 °F - 28.9 °F 100% 30.49 in 0.2 mi Calm Calm - N/A Fog Light Freezing Fog
9:07 AM 30.2 °F - 30.2 °F 100% 30.39 in 0.8 mi Calm Calm - N/A   Mist
9:13 AM 30.2 °F - 30.2 °F 100% 30.39 in 2.0 mi Calm Calm - N/A   Overcast
9:21 AM 30.2 °F - 30.2 °F 100% 30.39 in 6.0 mi Calm Calm - N/A   Mostly Cloudy
9:53 AM 32.0 °F - 30.9 °F 96% 30.48 in 2.5 mi Calm Calm - N/A   Mostly Cloudy
10:05 AM 32.0 °F - 30.2 °F 93% 30.39 in 6.0 mi Calm Calm - N/A   Mostly Cloudy
10:13 AM 33.8 °F - 33.8 °F 100% 30.38 in 10.0 mi Calm Calm - N/A   Scattered Clouds
10:53 AM 37.0 °F - 34.0 °F 89% 30.45 in 10.0 mi Calm Calm - N/A   Clear
11:53 AM 43.0 °F - 34.0 °F 71% 30.42 in 10.0 mi Calm Calm - N/A   Clear
12:53 PM 45.0 °F 43.5 °F 34.0 °F 65% 30.39 in 10.0 mi WSW 3.5 mph - N/A   Clear
1:53 PM 48.0 °F - 35.1 °F 61% 30.38 in 10.0 mi Calm Calm - N/A   Clear
2:53 PM 46.9 °F - 34.0 °F 61% 30.37 in 10.0 mi SSW 4.6 mph - N/A   Clear
3:53 PM 45.0 °F 42.6 °F 34.0 °F 65% 30.37 in 10.0 mi SSE 4.6 mph - N/A   Clear
4:53 PM 43.0 °F - 34.0 °F 71% 30.37 in 10.0 mi Calm Calm - N/A   Clear
5:53 PM 37.9 °F - 32.0 °F 79% 30.39 in 10.0 mi Calm Calm - N/A   Clear
6:53 PM 35.1 °F 32.2 °F 30.9 °F 85% 30.40 in 10.0 mi ESE 3.5 mph - N/A   Clear
7:53 PM 34.0 °F - 30.0 °F 85% 30.41 in 10.0 mi Calm Calm - N/A   Clear
8:53 PM 33.1 °F - 28.9 °F 85% 30.42 in 10.0 mi Calm Calm - N/A   Clear
9:53 PM 30.9 °F - 28.0 °F 89% 30.42 in 10.0 mi Calm Calm - N/A   Clear
10:53 PM 30.0 °F - 27.0 °F 88% 30.41 in 10.0 mi Calm Calm - N/A   Clear
11:53 PM 28.0 °F - 26.1 °F 92% 30.40 in 10.0 mi Calm Calm - N/A   Clear